Location: Alta
(39.2070°N, 120.8111°W)
Time: 07:01:26
(UTC+00:00)

CZ-4B DEB - Pass Details

Date: 08 December 2023
Orbit: 838 x 858 km, 99.0° (Epoch: 02 March)

Event Time Altitude Azimuth Distance (km) Brightness Sun altitude
Rises 04:33:33 0° 214° (SW) 3,414 7.6 -44.4°
Enters shadow 04:36:11 - 231° (SW) 2,700 7.2 -44.9°
Exits shadow 04:40:36 13° 278° (W) 2,257 6.9 -45.8°
Drops below altitude 10° 04:42:37 10° 299° (WNW) 2,497 7.1 -46.2°
Sets 04:46:22 0° 325° (NW) 3,440 7.8 -46.9°
